Hickory, NC

1:50 AM EDT on June 22, 2018 (GMT -0400)
Hickory Regional

Weather History for KHKY - December, 2017

Change the Weather History Date:

Thursday, December 7, 2017

  Actual Average Record
Temperature  
Mean Temperature 42 °F -  
Max Temperature 48 °F 53 °F 76 °F (1956)
Min Temperature 36 °F 31 °F 13 °F (1977)
Degree Days  
Heating Degree Days 23    
Moisture  
Dew Point 31 °F    
Average Humidity 66    
Maximum Humidity 93    
Minimum Humidity 41    
Precipitation  
Precipitation 0.00 in - - ()
Sea Level Pressure  
Sea Level Pressure 30.08 in    
Wind  
Wind Speed 1 mph (SSW)    
Max Wind Speed 8 mph    
Max Gust Speed -    
Visibility 10 miles    
Events      
Averages and records for this station are not official NWS values.
T = Trace of Precipitation, MM = Missing Value Source: NWS Daily Summary

Daily Weather History Graph

Daily Weather History Graph

Search for Another Location

Airport or City:

Astronomy

Dec. 07, 2017 Rise Set
Actual Time 7:22 AM EST 5:11 PM EST
Civil Twilight 6:54 AM EST 5:40 PM EST
Nautical Twilight 6:22 AM EST 6:11 PM EST
Astronomical Twilight 5:51 AM EST 6:42 PM EST
Moon 9:53 PM EST (12/7) 11:03 AM EST (12/7)
Length of Visible Light 10h 46m
Length of Day
9h 49m
Waning Gibbous, 78% of the Moon is Illuminated
Dec 7
Waning Gibbous
Dec 10
Last Quarter
Dec 18
New
Dec 26
First Quarter
Jan 1
Full

Hourly Weather History & Observations

Time (EST) Temp. Windchill Dew Point Humidity Pressure Visibility Wind Dir Wind Speed Gust Speed Precip Events Conditions
12:53 AM 41.0 °F - 36.0 °F 82% 30.09 in 10.0 mi Calm Calm - N/A   Clear
1:53 AM 41.0 °F - 37.0 °F 86% 30.09 in 10.0 mi Calm Calm - N/A   Clear
2:53 AM 39.9 °F - 37.0 °F 89% 30.09 in 10.0 mi Calm Calm - N/A   Partly Cloudy
3:53 AM 37.9 °F - 36.0 °F 93% 30.09 in 10.0 mi Calm Calm - N/A   Clear
4:53 AM 39.0 °F - 35.1 °F 86% 30.09 in 10.0 mi Calm Calm - N/A   Mostly Cloudy
5:53 AM 39.0 °F - 33.1 °F 79% 30.10 in 10.0 mi Calm Calm - N/A   Scattered Clouds
6:53 AM 37.0 °F - 34.0 °F 89% 30.10 in 10.0 mi Calm Calm - N/A   Clear
7:53 AM 36.0 °F - 30.9 °F 82% 30.12 in 10.0 mi Calm Calm - N/A   Clear
8:53 AM 39.0 °F - 36.0 °F 89% 30.14 in 10.0 mi Calm Calm - N/A   Clear
9:53 AM 42.1 °F - 28.0 °F 58% 30.15 in 10.0 mi Calm Calm - N/A   Clear
10:53 AM 44.1 °F - 25.0 °F 47% 30.14 in 10.0 mi Calm Calm - N/A   Clear
11:53 AM 45.0 °F 42.6 °F 27.0 °F 49% 30.10 in 10.0 mi SSW 4.6 mph - N/A   Clear
12:53 PM 46.9 °F - 28.0 °F 48% 30.08 in 10.0 mi South 6.9 mph - N/A   Clear
1:53 PM 46.9 °F - 25.0 °F 42% 30.05 in 10.0 mi SSW 6.9 mph - N/A   Clear
2:53 PM 48.0 °F - 25.0 °F 41% 30.03 in 10.0 mi South 8.1 mph - N/A   Clear
3:53 PM 46.9 °F - 27.0 °F 46% 30.03 in 10.0 mi Variable 4.6 mph - N/A   Clear
4:53 PM 46.9 °F - 28.0 °F 48% 30.04 in 10.0 mi South 6.9 mph - N/A   Clear
5:53 PM 45.0 °F 43.5 °F 30.0 °F 56% 30.05 in 10.0 mi Variable 3.5 mph - N/A   Clear
6:53 PM 44.1 °F - 30.9 °F 60% 30.07 in 10.0 mi Calm Calm - N/A   Clear
7:53 PM 43.0 °F - 30.9 °F 62% 30.07 in 10.0 mi Calm Calm - N/A   Clear
8:53 PM 43.0 °F - 30.9 °F 62% 30.07 in 10.0 mi Calm Calm - N/A   Clear
9:53 PM 42.1 °F - 30.0 °F 62% 30.05 in 10.0 mi Calm Calm - N/A   Clear
10:53 PM 42.1 °F - 25.0 °F 51% 30.06 in 10.0 mi Calm Calm - N/A   Scattered Clouds
11:53 PM 39.0 °F - 34.0 °F 82% 30.04 in 10.0 mi Calm Calm - N/A   Partly Cloudy